Location: Howard City Library
(37.4684°N, 96.2639°W)
Time: 18:39:49
(UTC+00:00)

Cosmos 1992 Rocket - Pass Details

Date: 18 February 2020
Orbit: 759 x 765 km, 74.0° (Epoch: 05 April)

Event Time Altitude Azimuth Distance (km) Brightness Sun altitude
Exits shadow 11:40:44 34° 284° (WNW) 1,244 4.5 -18.6°
Maximum altitude 11:41:44 37° 259° (W) 1,173 4.4 -18.4°
Drops below altitude 10° 11:46:28 10° 193° (SSW) 2,288 6.3 -17.5°
Sets 11:48:58 0° 185° (S) 3,208 7.2 -17.0°
